Location: T�bingen+AIT
(48.5342°N, 9.0700°E)
Time: 20:28:30
(UTC+02:00)

Cosmos 1943 - Pass Details

Date: 14 September 2017
Orbit: 832 x 852 km, 71.0° (Epoch: 19 September)

Event Time Altitude Azimuth Distance (km) Brightness Sun altitude
Rises 20:59:39 0° 194° (SSW) 3,387 6.3 -13.9°
Reaches altitude 10° 21:02:06 10° 190° (S) 2,460 5.5 -14.3°
Maximum altitude 21:07:39 60° 112° (ESE) 968 3.2 -15.1°
Drops below altitude 10° 21:13:15 10° 34° (NE) 2,487 5.5 -16.0°
Sets 21:15:45 0° 31° (NNE) 3,428 6.3 -16.4°
